EST,Max TemperatureF,Mean TemperatureF,Min TemperatureF,Max Dew PointF,MeanDew PointF,Min DewpointF,Max Humidity, Mean Humidity, Min Humidity, Max Sea Level PressureIn, Mean Sea Level PressureIn, Min Sea Level PressureIn, Max VisibilityMiles, Mean VisibilityMiles, Min VisibilityMiles, Max Wind SpeedMPH, Mean Wind SpeedMPH, Max Gust SpeedMPH,PrecipitationIn, CloudCover, Events, WindDirDegrees
2012-12-1,61,50,39,44,40,35,85,68,51,30.29,30.23,30.17,10,10,9,15,6,18,0.00,5,,159
2012-12-2,57,55,52,56,51,43,93,80,66,30.17,30.10,30.05,10,6,0,16,9,23,0.55,8,Rain,200
2012-12-3,63,59,55,58,56,53,100,90,80,30.17,30.13,30.09,10,5,0,14,6,21,0.01,8,Fog-Rain,173
2012-12-4,63,53,42,58,50,41,100,86,72,30.18,30.07,29.99,10,8,2,23,11,30,0.64,7,Rain,217
2012-12-5,42,36,29,41,31,22,100,79,57,30.38,30.31,30.19,10,8,0,16,6,20,0.00,3,Fog,12
2012-12-6,46,37,27,40,28,21,75,64,53,30.34,30.17,30.00,10,10,10,13,6,17,T,6,,128
2012-12-7,52,48,44,51,47,42,100,92,83,30.01,29.94,29.84,8,3,0,9,2,10,0.72,8,Fog-Rain,130
2012-12-8,54,48,42,52,49,39,100,89,77,30.08,29.91,29.82,10,6,2,15,7,17,0.05,8,Rain,258
2012-12-9,58,50,41,57,46,35,100,88,76,30.08,29.90,29.68,10,8,3,16,9,22,0.64,8,Rain,133
2012-12-10,57,46,35,54,42,28,100,88,76,29.91,29.71,29.65,10,8,2,20,10,22,0.17,8,Rain-Snow,275
2012-12-11,36,33,29,31,27,21,89,74,59,30.26,30.08,29.91,10,9,6,15,9,18,T,7,Rain-Snow,261
2012-12-12,42,33,24,26,23,22,88,66,43,30.43,30.38,30.28,10,9,6,7,2,9,0.00,0,,147
2012-12-13,46,35,23,26,23,19,92,66,40,30.45,30.38,30.27,10,9,7,8,2,12,0.00,1,,178
2012-12-14,51,39,27,31,27,24,85,66,46,30.32,30.27,30.20,10,10,10,10,4,14,0.00,4,,176
2012-12-15,51,44,36,39,32,27,75,61,46,30.19,30.03,29.82,10,10,10,15,7,20,0.01,8,Rain,135
2012-12-16,61,56,50,53,49,39,93,78,63,29.81,29.73,29.66,10,10,9,17,9,22,0.02,7,Rain,198
2012-12-17,52,48,43,49,45,43,100,90,80,29.75,29.65,29.55,10,5,1,14,4,16,0.38,7,Rain-Thunderstorm,345
2012-12-18,44,42,39,41,35,31,93,76,58,29.84,29.74,29.57,10,9,6,17,10,23,T,7,Rain,268
2012-12-19,48,44,39,38,36,34,85,75,65,30.12,29.98,29.77,10,8,5,16,7,21,0.00,7,,241
2012-12-20,50,43,36,46,39,26,93,79,65,30.03,29.55,29.29,10,8,3,38,18,48,0.87,8,Rain-Snow-Thunderstorm,163
2012-12-21,36,33,30,30,28,25,92,78,64,29.92,29.61,29.43,10,4,0,37,24,44,0.24,8,Fog-Snow,266
2012-12-22,33,29,24,27,23,19,88,79,69,30.18,30.11,29.95,10,10,10,21,12,28,0.00,6,,258
2012-12-23,41,32,22,27,23,19,96,75,54,30.09,29.99,29.92,10,10,9,10,4,13,0.00,3,,192
2012-12-24,36,32,28,36,31,22,100,85,70,29.99,29.85,29.76,10,4,0,17,5,21,0.08,8,Fog-Rain,100
2012-12-25,36,35,33,32,28,24,96,80,64,30.21,30.13,29.99,10,8,4,16,9,20,0.00,8,,10
2012-12-26,35,32,29,32,29,26,92,81,70,30.07,29.69,29.55,10,4,0,24,13,32,0.71,8,Fog-Rain-Snow,28
2012-12-27,30,29,28,25,24,23,92,85,78,30.19,30.06,29.83,10,10,6,21,8,24,0.00,8,,283
2012-12-28,34,29,24,26,25,24,92,81,69,30.19,30.08,29.88,10,8,4,13,4,16,0.00,7,,111
2012-12-29,32,30,27,28,27,23,100,89,78,30.12,29.84,29.70,7,2,0,22,8,26,0.45,8,Fog-Snow,324
2012-12-30,28,24,20,23,20,17,88,78,68,30.43,30.34,30.12,10,9,4,22,11,24,T,6,Snow,244
2012-12-31,34,27,19,31,26,18,92,81,69,30.35,30.16,30.06,10,6,0,20,8,23,0.16,8,Fog-Snow,204